NOAA 16 DEB, 41249

Orbit data source: Space-Track

NOAA 16 DEB, 41249 is space debris in SSO originally from a launch on Thu, 21 Sep 2000 UTC launched from the Air Force Western Test Range (AFWTR). Debris objects in space refer to the collection of defunct objects orbiting the Earth. Examples of debris include non-operational satellites, rocket bodies, and fragments generated from explosions, collisions, or faulty payload assembly.

Loading next visibility...
Identifier
41249, 2000-055EZ
Orbit
SSO
Country
Flag of USUS
Related business
Manufacturer
Unknown
Mission
Spacecraft
Bus & Motor
Unknown
Mass
Unknown
Launch date (UTC)
2000-09-21 (26 years ago)
Launch vehicle
Unknown
Launch site
Air Force Western Test Range (AFWTR)
Object type
Payload
Rocket body
Debris
Shape & HBR
Unknown shape, 0.1 m
Radar Cross Section
Medium (>0.1 m² and <1 m²)

Expand to show TLE details & history
Last TLE update: 1 week ago

TLE from 1 week ago
0 NOAA 16 DEB
1 41249U 00055EZ  26152.10086880  .00010215  00000-0  21155-2 0  9992
2 41249  98.9585  23.2338 0032293  76.8448 283.6350 14.60133155543461
Epoch: 2026-06-01T02:25Z
TLE epoch observation values (Epoch: 2026-06-01T02:25:15.064Z)
Latitude
-0.00001°
Longitude
97.328°
Altitude
690.391 km
Speed
7.514 km/s
True Right ascension
01h 32m 56s
True Declination
0° 00' 00"
Sunlit
Object was in daylight at epoch
Visualization orbit readout
Latitude
Unknown
Longitude
Unknown
Altitude
Unknown
Speed
Unknown
Apparent Right ascension
Unknown
Apparent Declination
Unknown
Sunlit
N/A
Visualization observer readout
Local Sidereal Time
19:16:45
Azimuth
Unknown
Elevation
Unknown
Doppler factor
Unknown
Orbital elements
Apogee altitude
712.686 km
Perigee altitude
667.037 km
Semi-major axis
7,067.999 km
Eccentricity
0.00323
Inclination
98.9585°
RAAN
23.2338°
Arg. of periapsis
76.8448°
True anomaly
283.27504°
Mean anomaly
283.635°
Eccentric anomaly
283.45505°
Mean motion
3.65257 °/min
Orbital period
98.56 mins
BSTAR
0.0021155
Loading maneuver chart data...
Computing Atmospheric mass density...
Loading historical data...
Loading historical data...
Loading historical data...
Loading historical data...
Loading historical data...
Loading historical data...
Loading historical data...

Documentation

Showing up to 5 results
|